Location: Czekanka
(50.4925°N, 19.2643°E)
Time: 20:53:27
(UTC+00:00)

Cosmos 1607 - Visible Passes

Search period start: 13 September 2024 00:00
Search period end: 23 September 2024 00:00
Orbit: 913 x 989 km, 65.0° (Epoch: 13 September)

Date Brightness Start Highest point End Pass type
(mag) Time Alt. Az. Time Alt. Az. Time Alt. Az.
13 Sep 6.1 00:41:47 10° NW 00:46:46 23° N 00:51:42 10° ENE visible
13 Sep 5.2 02:29:38 10° NW 02:35:42 42° NE 02:41:37 10° ESE visible
13 Sep 5.5 17:50:53 10° SE 17:53:34 13° ESE 17:56:15 10° ENE visible
13 Sep 3.9 19:33:15 10° SSW 19:39:36 61° ESE 19:45:55 10° NE visible
13 Sep 5.0 21:21:01 10° WSW 21:27:08 43° NW 21:33:15 10° NE visible
13 Sep 6.1 23:11:02 10° WNW 23:16:04 23° N 23:21:02 10° NE visible
14 Sep 6.0 01:00:11 10° NW 01:05:27 26° NNE 01:10:37 10° ENE visible
14 Sep 4.6 02:47:42 10° NW 02:54:00 58° NE 03:00:10 10° ESE visible
14 Sep 5.0 18:06:23 10° SSE 18:11:06 22° ESE 18:15:48 10° ENE visible
14 Sep 3.9 19:51:06 10° SW 19:57:35 88° SE 20:04:03 10° NE visible
14 Sep 5.5 21:39:48 10° W 21:45:35 33° NNW 21:51:20 10° NE visible
14 Sep 6.1 23:29:53 10° NW 23:34:47 22° N 23:39:37 10° NE visible
15 Sep 5.7 01:18:26 10° NW 01:24:02 31° NNE 01:29:32 10° E visible
15 Sep 4.1 03:05:47 10° NW 03:12:11 82° NE 03:18:25 10° SE visible
15 Sep 4.5 18:23:04 10° S 18:28:46 34° ESE 18:34:28 10° NE visible
15 Sep 4.3 20:09:17 10° SW 20:15:43 65° NW 20:22:08 10° NE visible
15 Sep 5.8 21:58:43 10° WNW 22:04:08 27° NNW 22:09:32 10° NE visible
15 Sep 6.1 23:48:34 10° NW 23:53:30 22° N 23:58:22 10° ENE visible
16 Sep 5.3 01:36:34 10° NW 01:42:31 39° NNE 01:48:20 10° E visible
16 Sep 3.9 03:23:54 10° NW 03:30:13 68° SW 03:36:22 10° SSE visible
16 Sep 4.1 18:40:21 10° SSW 18:46:35 53° ESE 18:52:49 10° NE visible
16 Sep 4.9 20:27:46 10° WSW 20:33:59 47° NW 20:40:11 10° NE visible
16 Sep 6.0 22:17:42 10° WNW 22:22:47 24° NNW 22:27:51 10° NE visible
17 Sep 6.0 00:07:02 10° NW 00:12:12 24° NNE 00:17:16 10° ENE visible
17 Sep 4.8 01:54:39 10° NW 02:00:53 52° NE 02:06:58 10° ESE visible
17 Sep 4.3 03:42:09 10° NW 03:48:06 44° WSW 03:53:56 10° S visible
17 Sep 5.2 17:13:59 10° SSE 17:18:12 18° ESE 17:22:24 10° ENE visible
17 Sep 3.9 18:58:04 10° SSW 19:04:32 79° SE 19:10:59 10° NE visible
17 Sep 5.4 20:46:29 10° W 20:52:23 36° NNW 20:58:16 10° NE visible
17 Sep 6.1 22:36:35 10° NW 22:41:30 22° N 22:46:21 10° NE visible
18 Sep 5.8 00:25:19 10° NW 00:30:49 29° NNE 00:36:12 10° E visible
18 Sep 4.2 02:12:42 10° NW 02:19:07 73° NE 02:25:19 10° SE visible
18 Sep 4.8 17:30:23 10° S 17:35:49 29° ESE 17:41:15 10° NE visible
18 Sep 4.2 19:16:09 10° SW 19:22:37 73° NW 19:29:04 10° NE visible
18 Sep 5.8 21:05:23 10° W 21:10:55 29° NNW 21:16:25 10° NE visible
18 Sep 6.1 22:55:20 10° NW 23:00:13 22° N 23:05:04 10° NE visible
19 Sep 5.4 00:43:30 10° NW 00:49:20 35° NNE 00:55:03 10° E visible
19 Sep 3.9 02:30:49 10° NW 02:37:11 78° SW 02:43:22 10° SSE visible
19 Sep 4.3 17:47:29 10° S 17:53:35 46° ESE 17:59:40 10° NE visible
19 Sep 4.8 19:34:32 10° WSW 19:40:50 52° NW 19:47:07 10° NE visible
19 Sep 6.0 21:24:20 10° WNW 21:29:31 25° NNW 21:34:40 10° NE visible
19 Sep 6.0 23:13:52 10° NW 23:18:55 24° NNE 23:23:55 10° ENE visible
20 Sep 4.9 01:01:35 10° NW 01:07:44 47° NE 01:13:43 10° ESE visible
20 Sep 4.1 02:49:00 10° NW 02:55:06 51° WSW 03:01:04 10° SSE visible
20 Sep 4.0 18:05:04 10° SSW 18:11:29 70° SE 18:17:53 10° NE visible
20 Sep 5.3 19:53:11 10° W 19:59:12 39° NNW 20:05:11 10° NE visible
20 Sep 6.1 21:43:16 10° WNW 21:48:13 22° N 21:53:07 10° NE visible
20 Sep 5.8 23:32:13 10° NW 23:37:34 27° NNE 23:42:51 10° ENE visible
21 Sep 4.3 01:19:39 10° NW 01:26:00 65° NE 01:32:11 10° SE visible
21 Sep 4.5 03:07:22 10° NW 03:12:54 33° WSW 03:18:18 10° S visible
21 Sep 4.1 18:23:03 10° SW 18:29:32 82° NW 18:36:00 10° NE visible
21 Sep 5.7 20:12:02 10° W 20:17:41 31° NNW 20:23:18 10° NE visible
21 Sep 6.1 22:02:04 10° NW 22:06:56 22° N 22:11:45 10° NE visible
21 Sep 5.5 23:50:25 10° NW 23:56:07 33° NNE 00:01:44 10° E visible
22 Sep 3.8 01:37:43 10° NW 01:44:08 88° SW 01:50:21 10° SE visible
22 Sep 5.0 03:26:04 10° WNW 03:30:32 21° WSW 03:34:56 10° SSW visible
22 Sep 4.6 18:41:20 10° WSW 18:47:43 58° NW 18:54:03 10° NE visible
22 Sep 5.9 20:30:58 10° WNW 20:36:17 26° NNW 20:41:31 10° NE visible
22 Sep 6.0 22:20:40 10° NW 22:25:38 23° N 22:30:34 10° ENE visible
